D0A00670 Weather Reports


time (UTC)temp
C
wind
direction
speed
KPH
gust
KPH
rain 1hr
cm
rain 24hr
cm
rain mn
cm
humidity
%
barometer
mb
20260502123049 25 144 0.0 11.3 0.00 0.00 0.00 30 1018.8
20260502121550 25 147 0.0 9.7 0.00 0.00 0.00 33 1019.0
20260502114536 25 172 0.0 9.7 0.00 0.00 0.00 33 1019.3
20260502113032 23 179 1.6 12.9 0.00 0.00 0.00 35 1019.4
20260502111536 23 151 3.2 12.9 0.00 0.00 0.00 34 1019.7
20260502110033 23 143 0.0 0.0 0.00 0.00 0.00 36 1019.9
20260502104524 22 128 1.6 11.3 0.00 0.00 0.00 37 1020.1
20260502103022 22 195 1.6 9.7 0.00 0.00 0.00 37 1020.4
20260502101517 22 151 0.0 8.0 0.00 0.00 0.00 38 1020.7
20260502091502 20 182 0.0 0.0 0.00 0.00 0.00 45 1021.3
20260502090104 19 95 0.0 8.0 0.00 0.00 0.00 46 1021.4
20260502070035 16 163 0.0 0.0 0.00 0.00 0.00 51 1022.0
20260502064535 17 147 0.0 1.6 0.00 0.00 0.00 50 1022.1
20260502063032 15 142 0.0 0.0 0.00 0.00 0.00 55 1022.1
20260502061526 15 155 0.0 0.0 0.00 0.00 0.00 58 1022.0
20260502060022 14 156 0.0 0.0 0.00 0.00 0.00 60 1022.0
20260502054525 12 157 0.0 0.0 0.00 0.00 0.00 67 1022.1
20260502053012 11 172 0.0 0.0 0.00 0.00 0.00 76 1022.1
20260502051508 8 172 0.0 0.0 0.00 0.00 0.00 82 1022.0
20260502050007 7 172 0.0 0.0 0.00 0.00 0.00 82 1021.9
20260502044502 7 172 0.0 0.0 0.00 0.00 0.00 81 1021.9
20260502043108 6 172 0.0 0.0 0.00 0.00 0.00 81 1021.9
20260502041600 6 172 0.0 0.0 0.00 0.00 0.00 81 1021.9
20260502040058 6 219 0.0 0.0 0.00 0.00 0.00 81 1021.9
20260502034557 6 219 0.0 0.0 0.00 0.00 0.00 80 1021.8
20260502033057 6 219 0.0 0.0 0.00 0.00 0.00 80 1021.9
20260502031553 7 219 0.0 0.0 0.00 0.00 0.00 79 1021.9
20260502030055 7 219 0.0 0.0 0.00 0.00 0.00 80 1022.0
20260502024553 7 219 0.0 0.0 0.00 0.00 0.00 79 1022.0
20260502023054 7 219 0.0 0.0 0.00 0.00 0.00 79 1022.0
20260502021550 7 219 0.0 0.0 0.00 0.00 0.00 78 1021.9
20260502020049 7 219 0.0 0.0 0.00 0.00 0.00 78 1021.9
20260502014549 7 219 0.0 0.0 0.00 0.00 0.00 78 1022.1
20260502013049 7 219 0.0 0.0 0.00 0.00 0.00 78 1022.1
20260502011545 7 219 0.0 0.0 0.00 0.00 0.00 77 1022.3
20260502010051 7 219 0.0 0.0 0.00 0.00 0.00 77 1022.4
20260502004601 7 219 0.0 0.0 0.00 0.00 0.00 77 1022.5
20260502003039 7 219 0.0 0.0 0.00 0.00 0.00 76 1022.6
20260502001537 7 219 0.0 0.0 0.00 0.00 0.00 74 1022.6
20260502000048 8 219 0.0 0.0 0.00 0.00 0.00 73 1022.6
20260501234534 8 219 0.0 0.0 0.00 0.00 0.00 72 1022.8
20260501233030 8 219 0.0 0.0 0.00 0.00 0.00 71 1022.8
20260501231537 8 219 0.0 0.0 0.00 0.00 0.00 71 1022.9
20260501230026 9 219 0.0 0.0 0.00 0.00 0.00 69 1022.9
20260501224523 10 219 0.0 0.0 0.00 0.00 0.00 68 1022.9
20260501223021 10 219 0.0 0.0 0.00 0.00 0.00 68 1023.0
20260501221520 10 219 0.0 0.0 0.00 0.00 0.00 67 1022.9
20260501220016 10 208 0.0 0.0 0.00 0.00 0.00 64 1022.9
20260501214519 11 132 0.0 0.0 0.00 0.00 0.00 63 1022.9
20260501213014 11 132 0.0 0.0 0.00 0.00 0.00 62 1023.0
20260501211514 11 131 0.0 0.0 0.00 0.00 0.00 61 1023.0
20260501210014 12 131 0.0 0.0 0.00 0.00 0.00 60 1022.8
20260501204514 12 119 0.0 0.0 0.00 0.00 0.00 59 1022.7
20260501203012 13 119 0.0 0.0 0.00 0.00 0.00 57 1022.8
20260501201514 13 107 0.0 0.0 0.00 0.00 0.00 56 1022.8
20260501200011 14 107 0.0 0.0 0.00 0.00 0.00 54 1022.6
20260501194514 15 107 0.0 0.0 0.00 0.00 0.00 51 1022.6
20260501193021 16 107 0.0 0.0 0.00 0.00 0.00 48 1022.5
20260501191513 18 107 0.0 0.0 0.00 0.00 0.00 42 1022.4
20260501190008 20 107 0.0 0.0 0.00 0.00 0.00 36 1022.4
20260501184508 21 107 0.0 0.0 0.00 0.00 0.00 32 1022.3
20260501183007 21 108 0.0 0.0 0.00 0.00 0.00 30 1022.2
20260501181506 22 130 0.0 0.0 0.00 0.00 0.00 28 1022.2
20260501180011 22 113 0.0 4.8 0.00 0.00 0.00 28 1022.2
20260501174516 23 97 0.0 9.7 0.00 0.00 0.00 26 1022.1
20260501173004 23 91 0.0 4.8 0.00 0.00 0.00 25 1022.1
20260501171504 23 130 1.6 11.3 0.00 0.00 0.00 25 1022.1
20260501170105 24 96 1.6 14.5 0.00 0.00 0.00 24 1022.2
20260501164613 24 161 4.8 16.1 0.00 0.00 0.00 23 1022.4
20260501163106 25 125 1.6 9.7 0.00 0.00 0.00 23 1022.5
20260501161559 24 144 0.0 12.9 0.00 0.00 0.00 23 1022.6
20260501160101 25 115 0.0 9.7 0.00 0.00 0.00 23 1022.7
20260501154617 25 162 4.8 12.9 0.00 0.00 0.00 22 1022.8
20260501153056 25 161 4.8 12.9 0.00 0.00 0.00 23 1023.0
20260501151606 25 70 1.6 14.5 0.00 0.00 0.00 22 1023.2